[Date Prev][Date Next][Thread Prev][Thread Next] - [Date Index][Thread Index][Author Index]
2 Line ISS Keps 6-30
- Subject: [sarex] 2 Line ISS Keps 6-30
- From: "Dave Larsen PhD" <doc@xxxxxxxxxxx>
- Date: Thu, 30 Jun 2005 03:38:48 -0700
ISS
1 25544U 98067A 05181.14086196 .00460822 00000-0 32139-2 0 8025
2 25544 051.6455 194.4988 0003097 298.4782 148.7205 15.72394383377728
----
Via the sarex mailing list at AMSAT.ORG courtesy of AMSAT-NA.
To unsubscribe, send "unsubscribe sarex" to Majordomo@amsat.org
AMSAT Home